EN

Hourly Weather Kytaihorodka

Today, 28 July, Wednesday

Time Temperature Precipitation Wind Pressure Humidity
00:00 +24°C° 0 mm 2 mps 751 mmHg 58%
01:00 +24°C° 0 mm 2 mps 751 mmHg 60%
02:00 +23°C° 0 mm 2 mps 750 mmHg 62%
03:00 +23°C° 0 mm 2 mps 750 mmHg 64%
04:00 +23°C° 0 mm 2 mps 750 mmHg 67%
05:00 +23°C° 0 mm 2 mps 750 mmHg 69%
06:00 +25°C° 0 mm 2 mps 750 mmHg 63%
07:00 +27°C° 0 mm 2 mps 750 mmHg 57%
08:00 +29°C° 0 mm 3 mps 750 mmHg 51%
09:00 +30°C° 0 mm 3 mps 750 mmHg 45%
10:00 +33°C° 0 mm 3 mps 750 mmHg 39%
11:00 +34°C° 0 mm 3 mps 750 mmHg 33%
12:00 +35°C° 0 mm 3 mps 750 mmHg 32%
13:00 +35°C° 0 mm 3 mps 749 mmHg 30%
14:00 +36°C° 0 mm 3 mps 749 mmHg 29%
15:00 +35°C° 0 mm 3 mps 749 mmHg 31%
16:00 +35°C° 0 mm 3 mps 748 mmHg 32%
17:00 +34°C° 0 mm 3 mps 748 mmHg 34%
18:00 +32°C° 0 mm 4 mps 748 mmHg 39%
19:00 +30°C° 0 mm 5 mps 748 mmHg 45%
20:00 +28°C° 0 mm 5 mps 748 mmHg 50%
21:00 +27°C° 0 mm 5 mps 748 mmHg 52%
22:00 +26°C° 0 mm 4 mps 748 mmHg 54%
23:00 +26°C° 0 mm 4 mps 748 mmHg 57%

Tomorrow, 29 July, Thursday

Time Temperature Precipitation Wind Pressure Humidity
00:00 +25°C° 0 mm 3 mps 748 mmHg 59%
01:00 +24°C° 0 mm 3 mps 748 mmHg 62%
02:00 +24°C° 0 mm 3 mps 748 mmHg 65%
03:00 +22°C° 0.1 mm 3 mps 747 mmHg 68%
04:00 +22°C° 0.1 mm 3 mps 747 mmHg 71%
05:00 +22°C° 0.1 mm 3 mps 747 mmHg 75%
06:00 +25°C° 0 mm 3 mps 747 mmHg 68%
07:00 +27°C° 0 mm 2 mps 747 mmHg 62%
08:00 +29°C° 0 mm 2 mps 747 mmHg 56%
09:00 +30°C° 0 mm 3 mps 747 mmHg 51%
10:00 +33°C° 0 mm 3 mps 747 mmHg 47%
11:00 +34°C° 0 mm 3 mps 747 mmHg 43%
12:00 +35°C° 0 mm 3 mps 747 mmHg 40%
13:00 +35°C° 0 mm 3 mps 746 mmHg 37%
14:00 +36°C° 0 mm 3 mps 746 mmHg 35%
15:00 +35°C° 0.2 mm 4 mps 746 mmHg 40%
16:00 +33°C° 0.2 mm 5 mps 745 mmHg 46%
17:00 +32°C° 0.2 mm 5 mps 745 mmHg 52%
18:00 +28°C° 2.5 mm 5 mps 746 mmHg 64%
19:00 +25°C° 2.5 mm 4 mps 746 mmHg 75%
20:00 +22°C° 2.5 mm 3 mps 746 mmHg 86%
21:00 +22°C° 1 mm 3 mps 746 mmHg 86%
22:00 +22°C° 1 mm 3 mps 746 mmHg 85%
23:00 +23°C° 1 mm 2 mps 746 mmHg 85%

Day after tomorrow, 30 July, Friday

Time Temperature Precipitation Wind Pressure Humidity
00:00 +22°C° 0 mm 3 mps 745 mmHg 85%
01:00 +22°C° 0 mm 3 mps 745 mmHg 86%
02:00 +22°C° 0 mm 3 mps 745 mmHg 87%
03:00 +22°C° 0.1 mm 3 mps 745 mmHg 87%
04:00 +23°C° 0.1 mm 2 mps 745 mmHg 87%
05:00 +23°C° 0.1 mm 2 mps 745 mmHg 87%
06:00 +24°C° 0 mm 2 mps 745 mmHg 81%
07:00 +26°C° 0 mm 2 mps 745 mmHg 75%
08:00 +27°C° 0 mm 2 mps 745 mmHg 69%
09:00 +28°C° 0 mm 3 mps 745 mmHg 65%
10:00 +29°C° 0 mm 3 mps 745 mmHg 61%
11:00 +30°C° 0 mm 3 mps 745 mmHg 58%
12:00 +31°C° 0 mm 3 mps 745 mmHg 56%
13:00 +31°C° 0 mm 3 mps 745 mmHg 54%
14:00 +31°C° 0 mm 3 mps 745 mmHg 52%
15:00 +32°C° 0 mm 4 mps 744 mmHg 52%
16:00 +32°C° 0 mm 4 mps 744 mmHg 52%
17:00 +30°C° 0 mm 4 mps 744 mmHg 52%
18:00 +29°C° 0.1 mm 4 mps 744 mmHg 57%
19:00 +27°C° 0.1 mm 3 mps 744 mmHg 62%
20:00 +26°C° 0.1 mm 2 mps 745 mmHg 67%
21:00 +25°C° 0 mm 2 mps 745 mmHg 68%
22:00 +25°C° 0 mm 2 mps 745 mmHg 70%
23:00 +24°C° 0 mm 3 mps 745 mmHg 71%

31 July, Saturday

Time Temperature Precipitation Wind Pressure Humidity
00:00 +24°C° 0 mm 3 mps 745 mmHg 71%
01:00 +24°C° 0 mm 3 mps 745 mmHg 71%
02:00 +22°C° 0 mm 3 mps 745 mmHg 71%
03:00 +22°C° 0 mm 3 mps 745 mmHg 72%
04:00 +22°C° 0 mm 3 mps 746 mmHg 72%
05:00 +22°C° 0 mm 3 mps 746 mmHg 72%
06:00 +24°C° 0 mm 3 mps 746 mmHg 64%
07:00 +26°C° 0 mm 3 mps 746 mmHg 57%
08:00 +28°C° 0 mm 3 mps 746 mmHg 50%
09:00 +29°C° 0 mm 3 mps 746 mmHg 46%
10:00 +30°C° 0 mm 3 mps 746 mmHg 42%
11:00 +33°C° 0 mm 3 mps 746 mmHg 38%
12:00 +32°C° 0 mm 2 mps 746 mmHg 36%
13:00 +34°C° 0 mm 2 mps 746 mmHg 34%
14:00 +34°C° 0 mm 2 mps 746 mmHg 33%
15:00 +33°C° 0 mm 1 mps 746 mmHg 33%
16:00 +33°C° 0 mm 1 mps 745 mmHg 34%
17:00 +33°C° 0 mm 1 mps 745 mmHg 34%
18:00 +31°C° 0 mm 1 mps 745 mmHg 39%
19:00 +30°C° 0 mm 1 mps 745 mmHg 43%
20:00 +28°C° 0 mm 1 mps 745 mmHg 47%
21:00 +27°C° 0 mm 1 mps 745 mmHg 49%
22:00 +27°C° 0 mm 1 mps 745 mmHg 51%
23:00 +26°C° 0 mm 1 mps 746 mmHg 52%

1 August, Sunday

Time Temperature Precipitation Wind Pressure Humidity
00:00 +26°C° 0 mm 1 mps 746 mmHg 54%
01:00 +25°C° 0 mm 1 mps 746 mmHg 55%
02:00 +23°C° 0 mm 0 mps 746 mmHg 56%
03:00 +25°C° 0 mm 1 mps 746 mmHg 58%
04:00 +24°C° 0 mm 1 mps 746 mmHg 59%
05:00 +24°C° 0 mm 2 mps 745 mmHg 61%
06:00 +26°C° 0 mm 2 mps 746 mmHg 55%
07:00 +28°C° 0 mm 2 mps 746 mmHg 50%
08:00 +30°C° 0 mm 1 mps 746 mmHg 45%
09:00 +31°C° 0 mm 1 mps 746 mmHg 41%
10:00 +32°C° 0 mm 2 mps 746 mmHg 37%
11:00 +34°C° 0 mm 2 mps 746 mmHg 33%
12:00 +35°C° 0 mm 2 mps 745 mmHg 32%
13:00 +35°C° 0 mm 2 mps 745 mmHg 30%
14:00 +35°C° 0 mm 1 mps 745 mmHg 28%
15:00 +35°C° 0 mm 1 mps 745 mmHg 29%
16:00 +35°C° 0 mm 1 mps 745 mmHg 29%
17:00 +34°C° 0 mm 1 mps 745 mmHg 30%
18:00 +33°C° 0 mm 1 mps 745 mmHg 33%
19:00 +31°C° 0 mm 2 mps 745 mmHg 37%
20:00 +29°C° 0 mm 2 mps 745 mmHg 40%
21:00 +29°C° 0 mm 2 mps 745 mmHg 41%
22:00 +28°C° 0 mm 2 mps 745 mmHg 42%
23:00 +27°C° 0 mm 2 mps 745 mmHg 44%

2 August, Monday

Time Temperature Precipitation Wind Pressure Humidity
00:00 +27°C° 0 mm 2 mps 745 mmHg 45%
01:00 +27°C° 0 mm 1 mps 744 mmHg 47%
02:00 +26°C° 0 mm 1 mps 744 mmHg 49%
03:00 +26°C° 0 mm 1 mps 744 mmHg 51%
04:00 +26°C° 0 mm 2 mps 744 mmHg 53%
05:00 +25°C° 0 mm 2 mps 744 mmHg 56%
06:00 +27°C° 0 mm 2 mps 744 mmHg 53%
07:00 +29°C° 0 mm 2 mps 744 mmHg 50%
08:00 +31°C° 0 mm 2 mps 744 mmHg 47%
09:00 +33°C° 0 mm 3 mps 744 mmHg 43%
10:00 +35°C° 0 mm 4 mps 744 mmHg 39%
11:00 +36°C° 0 mm 4 mps 744 mmHg 35%
12:00 +37°C° 0 mm 4 mps 744 mmHg 33%
13:00 +37°C° 0 mm 4 mps 744 mmHg 31%
14:00 +38°C° 0 mm 3 mps 743 mmHg 30%
15:00 +37°C° 0 mm 3 mps 743 mmHg 31%
16:00 +37°C° 0 mm 3 mps 743 mmHg 32%
17:00 +36°C° 0 mm 3 mps 743 mmHg 33%
18:00 +33°C° 0.8 mm 3 mps 743 mmHg 44%
19:00 +29°C° 0.8 mm 4 mps 744 mmHg 55%
20:00 +26°C° 0.8 mm 4 mps 744 mmHg 67%
21:00 +26°C° 0.1 mm 4 mps 744 mmHg 67%
22:00 +25°C° 0.1 mm 4 mps 744 mmHg 68%
23:00 +25°C° 0.1 mm 3 mps 745 mmHg 68%
Show more